CZ-2F DEB (53364 NORAD) Tracking and Keplerian Element Data

This shows tracking and keplerian element data for the satellite.

Feedback or suggestion? Click here.




ElementValue
Catalog53364
NameCZ-2F DEB
Epoch Orbit374
Epoch Day241.62830922
Epoch Year2022
RAAN45.5936
Inclination50.029
Eccentricity0.011056
Argument of Perigee298.7451
Mean Anonmoly60.246
Mean Motion15.00049091
Decay Rate2.67E-06
L11 53364U 22093H 22241.62830922 .00000267 00000+0 40283-4 0 9995
L22 53364 50.0290 45.5936 0110560 298.7451 60.2460 15.00049091 3741



Live tracking and technical data element details for CZ-2F DEB (NORAD 53364). CZ-2F DEB can be tracked NOW for your location showing map with azimuth and elevation plus other details from your city location.







IsCatalogInMostPopularTable: catalog: 53364, numindb: 5
Update: records affected: 1



GetName: 53364 CZ-2F DEB

Hit Count: updated at: Tue, 29 Nov 2022 00:38:50 GMT